Regional Weather Roundup
Issued by NWS

Home | Current Version | Previous Version | Graphics & Text | Print | Product List | Glossary On
Versions: 1 2 3 4 5 6 7 8 9 10 11 12 13 14 15 16 17 18 19 20 21 22 23 24 25 26 27 28 29 30 31 32 33 34 35 36 37 38 39 40 41 42 43 44 45 46 47 48 49 50
000
ASUS45 KCYS 022110
RWRWY

WYOMING REGIONAL WEATHER ROUNDUP
NATIONAL WEATHER SERVICE CHEYENNE WY
300 PM MDT THU JUL 02 2015

NOTE:  "FAIR" INDICATES FEW OR NO CLOUDS BELOW 12,000 FEET
WITH NO SIGNIFICANT WEATHER AND/OR OBSTRUCTIONS TO VISIBILITY.

WYZ001-022200-
YELLOWSTONE NATIONAL PARK

CITY           SKY/WX    TMP DP  RH WIND       PRES   REMARKS
LK YELLOWSTONE   N/A     76  45  33 E7        30.34F
W YELLOWSTONE  NOT AVBL

$$
WYZ002>013-054>058-071-098>099-022200-
NORTHERN WYOMING

CITY           SKY/WX    TMP DP  RH WIND       PRES   REMARKS
JACKSON        FAIR      84  34  16 W15G21    30.20F
CODY           FAIR      81  52  36 N8        30.18S
GREYBULL       FAIR      88  44  21 N12       30.06F
WORLAND        FAIR      87  50  27 VRB5      30.09F
SHERIDAN       FAIR      83  54  36 NW9G16    30.14F
BUFFALO        PTSUNNY   77  55  46 N7        30.20F
GILLETTE       FAIR      79  57  46 N12G17    30.16F
HULETT         FAIR      73  52  46 N15       30.17F
NEWCASTLE      FAIR      75  50  41 N15G24    30.15F

$$
WYZ014>020-022>026-101>103-022200-
CENTRAL WYOMING

CITY           SKY/WX    TMP DP  RH WIND       PRES   REMARKS
BIG PINEY      FAIR      83  51  33 SW9       30.25F
PINEDALE       FAIR      81  41  24 W6        30.26F
DUBOIS         FAIR      79  43  27 SE15      30.25F
LANDER         PTSUNNY   82  51  34 N10       30.17F
RIVERTON       FAIR      81  49  32 VRB7      30.18F
CASPER         FAIR      84  48  28 N8        30.17F
DOUGLAS        FAIR      82  54  37 NE9       30.17F

$$
WYZ021-027>030-104>119-022200-
SOUTHERN WYOMING

CITY           SKY/WX    TMP DP  RH WIND       PRES   REMARKS
EVANSTON       FAIR      86  38  18 S10G18    30.26F
KEMMERER       FAIR     N/A N/A N/A NE7G16    30.27F
FORT BRIDGER   PTCLDY    90  32  12 W8G17     30.27F
ROCK SPRINGS   FAIR      84  46  26 VRB5      30.22F
DIXON          FAIR      86  41  20 NW10G20   30.22F
RAWLINS        PTSUNNY   78  50  37 E8        30.25F
SARATOGA       FAIR      81  45  28 W3        30.27F
LARAMIE        FAIR      80  46  30 MISG      30.27F
CHEYENNE       FAIR      79  51  37 NE7       30.22F
TORRINGTON     PTSUNNY   81  54  39 NE13      30.11S
PINE BLUFFS    CLOUDY    79  46  31 NE8G20    30.18S

$$


USA.gov is the U.S. government's official web portal to all federal, state and local government web resources and services.